This demonstration page uses our WeatherBlox Daily Observations layout. Learn more.

Left ArrowRight Arrow

44.31136, -96.79839

Hourly Observations for July 9, 2015

Temp ( °F °C ) Dew Point ( °F °C ) Humidity (%) Winds ( mph kmh ) Pressure ( in mb ) Visibility ( mi km ) Precip ( " mm )
12:15 am 00:15 Clear 63 17 55 13 77 77 S 7 11 29.94 1014 10 16 0.00 0.00
12:35 am 00:35 Clear 63 17 55 13 77 77 S 7 11 29.94 1014 10 16 0.00 0.00
12:55 am 00:55 Clear 61 16 55 13 83 83 SSE 7 11 29.94 1014 10 16 0.00 0.00
1:15 am 01:15 Clear 61 16 55 13 83 83 SSE 6 9 29.94 1014 10 16 0.00 0.00
1:35 am 01:35 Clear 61 16 55 13 83 83 SSE 6 9 29.94 1014 10 16 0.00 0.00
1:55 am 01:55 Clear 61 16 55 13 83 83 SSE 6 9 29.94 1014 10 16 0.00 0.00
2:15 am 02:15 Clear 61 16 55 13 83 83 SSE 6 9 29.94 1014 10 16 0.00 0.00
2:35 am 02:35 Partly Cloudy 61 16 55 13 83 83 SSE 6 9 29.94 1014 10 16 0.00 0.00
2:55 am 02:55 Cloudy 61 16 55 13 83 83 SE 6 9 29.94 1014 10 16 0.00 0.00
3:15 am 03:15 Partly Cloudy 61 16 55 13 83 83 SSE 5 7 29.94 1014 10 16 0.00 0.00
3:35 am 03:35 Mostly Clear 61 16 55 13 83 83 SSE 3 6 29.94 1014 10 16 0.00 0.00
3:55 am 03:55 Clear 61 16 55 13 83 83 SSE 5 7 29.94 1014 10 16 0.00 0.00
4:15 am 04:15 Clear 59 15 54 12 82 82 Calm 29.94 1014 10 16 0.00 0.00
4:35 am 04:35 Clear 61 16 55 13 83 83 Calm 29.94 1014 10 16 0.00 0.00
4:55 am 04:55 Clear 57 14 54 12 88 88 Calm 29.97 1015 10 16 0.00 0.00
5:15 am 05:15 Clear 57 14 54 12 88 88 Calm 30.00 1016 7 11 0.00 0.00
5:35 am 05:35 Clear 57 14 54 12 88 88 Calm 30.00 1016 10 16 0.00 0.00
5:55 am 05:55 Sunny 55 13 52 11 88 88 Calm 30.00 1016 5 8 0.00 0.00
6:15 am 06:15 Sunny 57 14 54 12 88 88 Calm 30.00 1016 10 16 0.00 0.00
6:35 am 06:35 Sunny 57 14 54 12 88 88 SE 3 6 30.00 1016 9 14 0.00 0.00
6:55 am 06:55 Sunny 57 14 54 12 88 88 SE 3 6 30.00 1016 8 13 0.00 0.00
7:15 am 07:15 Sunny 59 15 55 13 88 88 Calm 29.97 1015 8 13 0.00 0.00
7:35 am 07:35 Sunny 61 16 55 13 83 83 SSE 3 6 29.97 1015 10 16 0.00 0.00
7:55 am 07:55 Sunny 63 17 57 14 83 83 SSE 3 6 29.97 1015 10 16 0.00 0.00
8:15 am 08:15 Sunny 63 17 55 13 77 77 Calm 29.97 1015 10 16 0.00 0.00
8:35 am 08:35 Sunny 64 18 57 14 78 78 Calm 30.00 1016 10 16 0.00 0.00
8:55 am 08:55 Partly Cloudy 66 19 57 14 73 73 SW 3 6 30.00 1016 10 16 0.00 0.00
9:15 am 09:15 Mostly Cloudy 66 19 59 15 78 78 Calm 30.00 1016 10 16 0.00 0.00
9:35 am 09:35 Mostly Cloudy 66 19 59 15 78 78 Calm 30.00 1016 10 16 0.00 0.00
9:55 am 09:55 Mostly Cloudy 68 20 57 14 69 69 Calm 29.97 1015 10 16 0.00 0.00
10:15 am 10:15 Mostly Sunny 72 22 57 14 61 61 NNE 3 6 29.97 1015 10 16 0.00 0.00
10:35 am 10:35 Sunny 72 22 54 12 53 53 NNW 5 7 29.97 1015 10 16 0.00 0.00
10:55 am 10:55 Sunny 72 22 52 11 50 50 N 6 9 29.97 1015 10 16 0.00 0.00
11:15 am 11:15 Sunny 72 22 54 12 53 53 N 5 7 29.97 1015 10 16 0.00 0.00
11:35 am 11:35 Sunny 73 23 54 12 50 50 N 8 13 29.97 1015 10 16 0.00 0.00
11:55 am 11:55 Sunny 73 23 54 12 50 50 N 5 7 29.97 1015 10 16 0.00 0.00
12:15 pm 12:15 Sunny 73 23 54 12 50 50 NNW 7 11 29.97 1015 10 16 0.00 0.00
12:35 pm 12:35 Sunny 75 24 54 12 47 47 NNW 7 11 29.97 1015 10 16 0.00 0.00
12:55 pm 12:55 Sunny 75 24 52 11 44 44 NNW 3 6 29.97 1015 10 16 0.00 0.00
1:15 pm 13:15 Sunny 75 24 52 11 44 44 NW 7 11 29.97 1015 10 16 0.00 0.00
1:35 pm 13:35 Sunny 75 24 48 9 39 39 N 5 7 29.94 1014 10 16 0.00 0.00
1:55 pm 13:55 Sunny 77 25 48 9 36 36 W 3 6 29.91 1013 10 16 0.00 0.00
2:15 pm 14:15 Sunny 77 25 48 9 36 36 WNW 6 9 29.91 1013 10 16 0.00 0.00
2:35 pm 14:35 Sunny 79 26 52 11 39 39 W 8 13 29.91 1013 10 16 0.00 0.00
2:55 pm 14:55 Sunny 79 26 52 11 39 39 WNW 3 6 29.91 1013 10 16 0.00 0.00
3:15 pm 15:15 Sunny 79 26 50 10 37 37 NNW 5 7 29.91 1013 10 16 0.00 0.00
3:35 pm 15:35 Sunny 79 26 52 11 39 39 WNW 6 9 29.91 1013 10 16 0.00 0.00
3:55 pm 15:55 Sunny 79 26 54 12 42 42 NNW 5 7 29.91 1013 10 16 0.00 0.00
4:15 pm 16:15 Sunny 79 26 52 11 39 39 NNW 5 7 29.91 1013 10 16 0.00 0.00
4:35 pm 16:35 Sunny 81 27 52 11 37 37 W 5 7 29.91 1013 10 16 0.00 0.00
4:55 pm 16:55 Sunny 81 27 54 12 39 39 Calm 29.88 1012 10 16 0.00 0.00
5:15 pm 17:15 Sunny 81 27 54 12 39 39 Calm 29.88 1012 10 16 0.00 0.00
5:35 pm 17:35 Sunny 81 27 54 12 39 39 W 7 11 29.88 1012 10 16 0.00 0.00
5:55 pm 17:55 Sunny 81 27 52 11 37 37 WSW 6 9 29.88 1012 10 16 0.00 0.00
6:15 pm 18:15 Sunny 81 27 52 11 37 37 WSW 5 7 29.91 1013 10 16 0.00 0.00
6:35 pm 18:35 Sunny 81 27 52 11 37 37 SSW 5 7 29.91 1013 10 16 0.00 0.00
6:55 pm 18:55 Sunny 81 27 52 11 37 37 W 3 6 29.91 1013 10 16 0.00 0.00
7:15 pm 19:15 Sunny 79 26 54 12 42 42 WSW 3 6 29.88 1012 10 16 0.00 0.00
7:35 pm 19:35 Sunny 79 26 52 11 39 39 Calm 29.88 1012 10 16 0.00 0.00
7:55 pm 19:55 Sunny 79 26 48 9 34 34 Calm 29.88 1012 10 16 0.00 0.00
8:15 pm 20:15 Sunny 77 25 48 9 36 36 Calm 29.88 1012 10 16 0.00 0.00
8:35 pm 20:35 Sunny 75 24 50 10 41 41 Calm 29.88 1012 9 14 0.00 0.00
8:55 pm 20:55 Sunny 73 23 55 13 53 53 Calm 29.91 1013 10 16 0.00 0.00
9:15 pm 21:15 Clear 72 22 52 11 50 50 NE 3 6 29.91 1013 10 16 0.00 0.00
9:35 pm 21:35 Clear 72 22 54 12 53 53 Calm 29.94 1014 10 16 0.00 0.00
9:55 pm 21:55 Clear 72 22 54 12 53 53 E 3 6 29.94 1014 10 16 0.00 0.00
10:15 pm 22:15 Clear 72 22 54 12 53 53 E 3 6 29.94 1014 10 16 0.00 0.00
10:35 pm 22:35 Clear 70 21 54 12 57 57 Calm 29.94 1014 10 16 0.00 0.00
10:55 pm 22:55 Clear 70 21 52 11 53 53 E 3 6 29.94 1014 10 16 0.00 0.00
11:15 pm 23:15 Clear 70 21 52 11 53 53 E 3 6 29.94 1014 10 16 0.00 0.00
11:35 pm 23:35 Mostly Clear 70 21 52 11 53 53 ESE 3 6 29.94 1014 10 16 0.00 0.00
11:55 pm 23:55 Mostly Clear 66 19 54 12 64 64 Calm 29.97 1015 10 16 0.00 0.00

Powered by AerisWeather